sat.trackr.live / text

‹ back to catalog

STARLINK-31773

NORAD 59429 · 2024-065J

PAYLOAD ACTIVE UNKNOWN

§ Identity

Operator
Country
US
Launch date
2024-04-07
Launch site
AFWTR
Launch vehicle
Mass (kg)
RCS (m²)

Purposes: comms

External: N2YO · Heavens-Above · Gunter

§ Orbital elements

Epoch: 2026-05-25T02:43:09.947712Z

Period
94.11 min
Inclination
53.1604°
Eccentricity
0.0000670
Mean motion
15.30186204 rev/d
Perigee alt
474.8 km
Apogee alt
475.7 km
Semi-major
6,853.4 km
B*
7.9072e-6
RAAN
288.5841°
Arg perigee
108.4194°
Mean anomaly
251.6880°
Rev number
12,060

§ Raw data

STARLINK-317731 59429U 24065J   26145.11330958 -.00000125  00000+0  79072-5 0  99922 59429  53.1604 288.5841 0000670 108.4194 251.6880 15.30186204120605

JSON: /api/v1/satellites/59429 · /tle

For live sub-satellite position, see the globe view (requires WebGL).

§ Visibility from observer

Set your observer location to see the next 7 days of passes ≥ 10°. The values pass through the URL so the page stays shareable.

No JS? Fill the form by hand. The geolocation button needs JavaScript.